| time (UTC) | temp C | wind direction | speed KPH | gust KPH | rain 1hr cm | rain 24hr cm | rain mn cm | humidity % | barometer mb |
| 20260902163529 | 25 | 0.0 | 0.0 | 0.00 | 0.66 | 0.46 | 82 | 1041.8 | |
| 20260902163046 | 25 | 0.0 | 0.0 | 0.00 | 0.66 | 0.46 | 82 | 1042.0 | |
| 20260902162524 | 25 | 0.0 | 0.0 | 0.00 | 0.66 | 0.46 | 83 | 1042.1 | |
| 20260902162021 | 25 | 0.0 | 0.0 | 0.00 | 0.66 | 0.46 | 84 | 1042.0 | |
| 20260902161517 | 25 | 0.0 | 0.0 | 0.00 | 0.66 | 0.46 | 85 | 1041.9 | |
| 20260902161035 | 24 | 0.0 | 0.0 | 0.00 | 0.66 | 0.46 | 85 | 1041.8 | |
| 20260902160550 | 24 | 0.0 | 0.0 | 0.00 | 0.66 | 0.46 | 87 | 1042.0 | |
| 20260902160027 | 23 | 0.0 | 0.0 | 0.00 | 0.66 | 0.46 | 87 | 1042.1 | |
| 20260902155524 | 23 | 172 | 1.6 | 4.8 | 0.00 | 0.66 | 0.46 | 88 | 1041.9 |
| 20260902155021 | 23 | 0.0 | 0.0 | 0.00 | 0.66 | 0.46 | 88 | 1042.0 | |
| 20260902154538 | 23 | 0.0 | 0.0 | 0.00 | 0.66 | 0.46 | 89 | 1042.1 | |
| 20260902154055 | 22 | 0.0 | 0.0 | 0.00 | 0.66 | 0.46 | 89 | 1041.8 | |
| 20260902153531 | 22 | 0.0 | 0.0 | 0.00 | 0.66 | 0.46 | 89 | 1041.8 | |
| 20260902153048 | 22 | 0.0 | 0.0 | 0.00 | 0.66 | 0.46 | 89 | 1042.1 | |
| 20260902152526 | 22 | 0.0 | 0.0 | 0.00 | 0.66 | 0.46 | 90 | 1041.9 | |
| 20260902152022 | 22 | 0.0 | 0.0 | 0.00 | 0.66 | 0.46 | 90 | 1041.8 | |
| 20260902151519 | 22 | 0.0 | 0.0 | 0.00 | 0.66 | 0.46 | 90 | 1042.0 | |
| 20260902151017 | 22 | 0.0 | 0.0 | 0.00 | 0.66 | 0.46 | 91 | 1042.0 | |
| 20260902150534 | 22 | 0.0 | 0.0 | 0.00 | 0.66 | 0.46 | 91 | 1042.0 | |
| 20260902150031 | 22 | 0.0 | 0.0 | 0.00 | 0.66 | 0.46 | 91 | 1041.9 | |
| 20260902145528 | 22 | 175 | 0.0 | 1.6 | 0.00 | 0.66 | 0.46 | 91 | 1042.2 |
| 20260902145025 | 21 | 210 | 0.0 | 3.2 | 0.00 | 0.66 | 0.46 | 91 | 1042.1 |
| 20260902144522 | 21 | 0.0 | 0.0 | 0.00 | 0.66 | 0.46 | 91 | 1042.0 | |
| 20260902144019 | 21 | 162 | 0.0 | 1.6 | 0.00 | 0.66 | 0.46 | 92 | 1042.0 |
| 20260902143537 | 21 | 162 | 0.0 | 3.2 | 0.00 | 0.66 | 0.46 | 92 | 1042.1 |
| 20260902143033 | 21 | 0.0 | 0.0 | 0.00 | 0.66 | 0.46 | 92 | 1042.0 | |
| 20260902142530 | 21 | 0.0 | 0.0 | 0.00 | 0.66 | 0.46 | 92 | 1042.0 | |
| 20260902142026 | 21 | 0.0 | 0.0 | 0.00 | 0.66 | 0.46 | 92 | 1041.9 | |
| 20260902141544 | 21 | 0.0 | 0.0 | 0.00 | 0.66 | 0.46 | 92 | 1042.0 | |
| 20260902141021 | 20 | 0.0 | 0.0 | 0.00 | 0.66 | 0.46 | 92 | 1042.1 | |
| 20260902140519 | 20 | 0.0 | 0.0 | 0.00 | 0.66 | 0.46 | 92 | 1042.1 | |
| 20260902140016 | 20 | 0.0 | 0.0 | 0.00 | 0.66 | 0.46 | 92 | 1042.2 | |
| 20260902135551 | 20 | 0.0 | 0.0 | 0.00 | 0.66 | 0.46 | 92 | 1042.3 | |
| 20260902135028 | 20 | 0.0 | 0.0 | 0.00 | 0.66 | 0.46 | 92 | 1042.3 | |
| 20260902134525 | 20 | 0.0 | 0.0 | 0.00 | 0.66 | 0.46 | 92 | 1042.4 | |
| 20260902134042 | 20 | 0.0 | 0.0 | 0.00 | 0.66 | 0.46 | 92 | 1042.8 | |
| 20260902133519 | 19 | 0.0 | 0.0 | 0.00 | 0.66 | 0.46 | 92 | 1042.8 | |
| 20260902133016 | 19 | 0.0 | 0.0 | 0.00 | 0.66 | 0.46 | 92 | 1042.7 | |
| 20260902132531 | 19 | 0.0 | 0.0 | 0.00 | 0.66 | 0.46 | 92 | 1042.7 | |
| 20260902132028 | 18 | 0.0 | 0.0 | 0.00 | 0.66 | 0.46 | 92 | 1042.9 | |
| 20260902131525 | 18 | 0.0 | 0.0 | 0.00 | 0.66 | 0.46 | 92 | 1043.3 | |
| 20260902131022 | 18 | 0.0 | 0.0 | 0.00 | 0.66 | 0.46 | 92 | 1043.0 | |
| 20260902130519 | 18 | 0.0 | 0.0 | 0.00 | 0.66 | 0.46 | 92 | 1043.0 | |
| 20260902130037 | 18 | 0.0 | 0.0 | 0.00 | 0.66 | 0.46 | 92 | 1042.9 | |
| 20260902125533 | 18 | 0.0 | 0.0 | 0.00 | 0.66 | 0.46 | 92 | 1043.0 | |
| 20260902125030 | 18 | 0.0 | 0.0 | 0.00 | 0.66 | 0.46 | 92 | 1043.1 | |
| 20260902124527 | 18 | 0.0 | 0.0 | 0.00 | 0.66 | 0.46 | 92 | 1042.9 | |
| 20260902124024 | 18 | 0.0 | 0.0 | 0.00 | 0.66 | 0.46 | 92 | 1042.7 | |
| 20260902123521 | 18 | 0.0 | 0.0 | 0.00 | 0.66 | 0.46 | 92 | 1042.5 | |
| 20260902123018 | 18 | 0.0 | 0.0 | 0.03 | 0.66 | 0.46 | 92 | 1042.4 | |
| 20260902122536 | 18 | 0.0 | 0.0 | 0.05 | 0.66 | 0.46 | 92 | 1042.4 | |
| 20260902122032 | 18 | 0.0 | 0.0 | 0.05 | 0.66 | 0.46 | 92 | 1042.4 | |
| 20260902121529 | 18 | 0.0 | 0.0 | 0.05 | 0.66 | 0.46 | 92 | 1042.8 | |
| 20260902121026 | 18 | 0.0 | 0.0 | 0.08 | 0.66 | 0.46 | 91 | 1042.6 | |
| 20260902120524 | 18 | 152 | 0.0 | 1.6 | 0.10 | 0.66 | 0.46 | 91 | 1042.4 |
| 20260902120041 | 18 | 168 | 0.0 | 3.2 | 0.10 | 0.66 | 0.46 | 91 | 1041.5 |
| 20260902115517 | 18 | 0.0 | 0.0 | 0.10 | 0.66 | 0.46 | 91 | 1041.7 | |
| 20260902115034 | 18 | 243 | 0.0 | 3.2 | 0.10 | 0.66 | 0.46 | 91 | 1041.5 |
| 20260902114550 | 18 | 263 | 0.0 | 4.8 | 0.10 | 0.66 | 0.46 | 91 | 1041.1 |
| 20260902114028 | 18 | 0.0 | 0.0 | 0.10 | 0.64 | 0.46 | 91 | 1041.1 | |
| 20260902113525 | 18 | 0.0 | 0.0 | 0.10 | 0.64 | 0.46 | 91 | 1041.8 | |
| 20260902113022 | 18 | 0.0 | 0.0 | 0.10 | 0.64 | 0.43 | 91 | 1042.1 | |
| 20260902112519 | 18 | 178 | 0.0 | 3.2 | 0.10 | 0.61 | 0.43 | 91 | 1042.6 |
| 20260902112015 | 18 | 0.0 | 0.0 | 0.08 | 0.61 | 0.41 | 92 | 1043.0 | |
| 20260902111531 | 18 | 0.0 | 0.0 | 0.13 | 0.58 | 0.41 | 92 | 1043.3 | |
| 20260902111028 | 18 | 0.0 | 0.0 | 0.10 | 0.56 | 0.38 | 91 | 1043.4 | |
| 20260902110525 | 18 | 0.0 | 0.0 | 0.08 | 0.56 | 0.36 | 92 | 1043.5 | |
| 20260902110042 | 18 | 0.0 | 0.0 | 0.10 | 0.56 | 0.36 | 91 | 1043.8 | |
| 20260902105519 | 19 | 0.0 | 0.0 | 0.13 | 0.56 | 0.36 | 91 | 1043.7 | |
| 20260902105017 | 19 | 0.0 | 0.0 | 0.13 | 0.56 | 0.36 | 91 | 1043.4 | |
| 20260902104612 | 19 | 0.0 | 0.0 | 0.13 | 0.56 | 0.36 | 91 | 1043.5 | |
| 20260902104029 | 19 | 0.0 | 0.0 | 0.13 | 0.56 | 0.36 | 91 | 1043.5 | |
| 20260902103526 | 19 | 0.0 | 0.0 | 0.10 | 0.53 | 0.33 | 91 | 1043.4 | |
| 20260902103023 | 19 | 0.0 | 0.0 | 0.10 | 0.53 | 0.33 | 91 | 1043.6 | |
| 20260902102520 | 19 | 0.0 | 0.0 | 0.10 | 0.53 | 0.33 | 91 | 1042.9 | |
| 20260902102017 | 19 | 0.0 | 0.0 | 0.10 | 0.53 | 0.33 | 91 | 1042.0 | |
| 20260902101535 | 19 | 133 | 0.0 | 1.6 | 0.05 | 0.48 | 0.28 | 91 | 1041.9 |
| 20260902101032 | 19 | 149 | 4.8 | 11.3 | 0.05 | 0.48 | 0.28 | 91 | 1041.4 |
| 20260902100529 | 19 | 164 | 0.0 | 6.4 | 0.05 | 0.48 | 0.28 | 91 | 1041.4 |
| 20260902100026 | 19 | 0.0 | 0.0 | 0.03 | 0.46 | 0.25 | 91 | 1041.8 | |
| 20260902095523 | 19 | 0.0 | 0.0 | 0.00 | 0.43 | 0.23 | 91 | 1041.9 | |
| 20260902095020 | 19 | 0.0 | 0.0 | 0.00 | 0.43 | 0.23 | 91 | 1042.3 | |
| 20260902094517 | 19 | 0.0 | 0.0 | 0.00 | 0.43 | 0.23 | 91 | 1041.9 | |
| 20260902094034 | 19 | 0.0 | 0.0 | 0.00 | 0.43 | 0.23 | 91 | 1042.0 | |
| 20260902093529 | 19 | 0.0 | 0.0 | 0.00 | 0.43 | 0.23 | 91 | 1041.8 | |
| 20260902093027 | 19 | 0.0 | 0.0 | 0.00 | 0.43 | 0.23 | 91 | 1042.0 | |
| 20260902092524 | 19 | 0.0 | 0.0 | 0.00 | 0.43 | 0.23 | 91 | 1042.3 | |
| 20260902092021 | 19 | 0.0 | 0.0 | 0.00 | 0.43 | 0.23 | 91 | 1042.4 | |
| 20260902091518 | 19 | 0.0 | 0.0 | 0.00 | 0.43 | 0.23 | 91 | 1042.0 | |
| 20260902091015 | 20 | 0.0 | 0.0 | 0.00 | 0.43 | 0.23 | 91 | 1042.0 | |
| 20260902090532 | 20 | 0.0 | 0.0 | 0.00 | 0.43 | 0.23 | 91 | 1042.1 | |
| 20260902090029 | 20 | 274 | 0.0 | 1.6 | 0.00 | 0.43 | 0.23 | 91 | 1042.4 |
| 20260902085526 | 20 | 0.0 | 0.0 | 0.00 | 0.43 | 0.23 | 91 | 1042.4 | |
| 20260902085023 | 20 | 0.0 | 0.0 | 0.00 | 0.43 | 0.23 | 91 | 1042.7 | |
| 20260902084520 | 20 | 0.0 | 0.0 | 0.00 | 0.43 | 0.23 | 91 | 1042.8 | |
| 20260902084017 | 20 | 0.0 | 0.0 | 0.03 | 0.43 | 0.23 | 90 | 1042.8 | |
| 20260902083535 | 20 | 0.0 | 0.0 | 0.05 | 0.43 | 0.23 | 90 | 1042.7 | |
| 20260902083031 | 20 | 0.0 | 0.0 | 0.23 | 0.43 | 0.23 | 90 | 1042.7 | |
| 20260902082548 | 20 | 0.0 | 0.0 | 0.23 | 0.43 | 0.23 | 90 | 1042.7 | |
| 20260902082045 | 20 | 274 | 0.0 | 1.6 | 0.23 | 0.43 | 0.23 | 90 | 1042.9 |
| 20260902081523 | 20 | 274 | 0.0 | 1.6 | 0.23 | 0.43 | 0.23 | 90 | 1043.1 |
| 20260902081039 | 20 | 276 | 0.0 | 6.4 | 0.23 | 0.43 | 0.23 | 90 | 1043.2 |
| 20260902080537 | 20 | 0.0 | 0.0 | 0.23 | 0.43 | 0.23 | 90 | 1043.4 | |
| 20260902080034 | 20 | 318 | 0.0 | 1.6 | 0.23 | 0.43 | 0.23 | 90 | 1043.6 |
| 20260902075530 | 20 | 318 | 0.0 | 1.6 | 0.23 | 0.43 | 0.23 | 90 | 1043.8 |
| 20260902075027 | 20 | 304 | 0.0 | 3.2 | 0.23 | 0.43 | 0.23 | 90 | 1043.9 |
| 20260902074525 | 20 | 338 | 3.2 | 17.7 | 0.23 | 0.43 | 0.23 | 91 | 1043.8 |
| 20260902074022 | 20 | 333 | 1.6 | 9.7 | 0.20 | 0.41 | 0.20 | 91 | 1044.3 |
| 20260902073518 | 20 | 346 | 3.2 | 12.9 | 0.18 | 0.38 | 0.18 | 91 | 1044.6 |
| 20260902073016 | 20 | 347 | 4.8 | 12.9 | 0.00 | 0.20 | 0.00 | 91 | 1044.3 |
| 20260902072612 | 20 | 329 | 0.0 | 9.7 | 0.00 | 0.20 | 0.00 | 91 | 1041.3 |
| 20260902072028 | 20 | 0.0 | 0.0 | 0.00 | 0.20 | 0.00 | 91 | 1040.8 | |
| 20260902071526 | 20 | 0.0 | 0.0 | 0.00 | 0.20 | 0.00 | 91 | 1040.9 | |
| 20260902071023 | 20 | 0.0 | 0.0 | 0.00 | 0.20 | 0.00 | 91 | 1040.7 | |
| 20260902070541 | 20 | 0.0 | 0.0 | 0.00 | 0.20 | 0.00 | 91 | 1040.8 | |
| 20260902070058 | 20 | 0.0 | 0.0 | 0.00 | 0.20 | 0.00 | 91 | 1040.6 | |
| 20260902065534 | 20 | 0.0 | 0.0 | 0.00 | 0.20 | 0.00 | 91 | 1040.6 | |
| 20260902065030 | 20 | 0.0 | 0.0 | 0.00 | 0.20 | 0.00 | 91 | 1040.6 | |
| 20260902064527 | 20 | 0.0 | 0.0 | 0.00 | 0.20 | 0.00 | 90 | 1040.9 | |
| 20260902064024 | 20 | 0.0 | 0.0 | 0.00 | 0.20 | 0.00 | 90 | 1040.9 | |
| 20260902063521 | 20 | 0.0 | 0.0 | 0.00 | 0.20 | 0.00 | 90 | 1040.8 | |
| 20260902063019 | 20 | 0.0 | 0.0 | 0.00 | 0.20 | 0.00 | 90 | 1040.9 | |
| 20260902062515 | 20 | 0.0 | 0.0 | 0.00 | 0.20 | 0.00 | 90 | 1040.8 | |
| 20260902062031 | 20 | 0.0 | 0.0 | 0.00 | 0.20 | 0.00 | 90 | 1040.9 | |
| 20260902061527 | 20 | 0.0 | 0.0 | 0.00 | 0.20 | 0.00 | 90 | 1040.8 | |
| 20260902061025 | 20 | 0.0 | 0.0 | 0.00 | 0.20 | 0.00 | 90 | 1040.8 | |
| 20260902060522 | 20 | 0.0 | 0.0 | 0.00 | 0.20 | 0.00 | 90 | 1040.5 | |
| 20260902060059 | 20 | 0.0 | 0.0 | 0.00 | 0.20 | 0.00 | 90 | 1040.5 | |
| 20260902055516 | 20 | 0.0 | 0.0 | 0.00 | 0.20 | 0.00 | 90 | 1040.8 | |
| 20260902055032 | 20 | 0.0 | 0.0 | 0.00 | 0.20 | 0.00 | 90 | 1041.0 | |
| 20260902054549 | 20 | 143 | 0.0 | 1.6 | 0.00 | 0.20 | 0.00 | 90 | 1041.2 |
| 20260902054147 | 20 | 139 | 0.0 | 3.2 | 0.00 | 0.20 | 0.00 | 90 | 1041.3 |
| 20260902053524 | 20 | 0.0 | 0.0 | 0.00 | 0.20 | 0.00 | 90 | 1041.6 | |
| 20260902053021 | 20 | 0.0 | 0.0 | 0.00 | 0.20 | 0.00 | 90 | 1041.6 | |
| 20260902052517 | 20 | 0.0 | 0.0 | 0.00 | 0.20 | 0.00 | 90 | 1042.1 | |
| 20260902052034 | 20 | 0.0 | 0.0 | 0.00 | 0.20 | 0.00 | 90 | 1041.6 | |
| 20260902051531 | 20 | 0.0 | 0.0 | 0.00 | 0.20 | 0.00 | 90 | 1041.3 | |
| 20260902051027 | 21 | 0.0 | 0.0 | 0.00 | 0.20 | 0.00 | 90 | 1041.4 | |
| 20260902050524 | 21 | 0.0 | 0.0 | 0.00 | 0.20 | 0.00 | 90 | 1041.4 | |
| 20260902050041 | 21 | 0.0 | 0.0 | 0.00 | 0.20 | 0.20 | 91 | 1041.5 | |
| 20260902045538 | 21 | 0.0 | 0.0 | 0.00 | 0.20 | 0.20 | 91 | 1041.5 | |
| 20260902045015 | 21 | 0.0 | 0.0 | 0.00 | 0.20 | 0.20 | 91 | 1041.5 | |
| 20260902044531 | 21 | 0.0 | 0.0 | 0.00 | 0.20 | 0.20 | 91 | 1041.7 | |
| 20260902044029 | 21 | 0.0 | 0.0 | 0.03 | 0.20 | 0.20 | 91 | 1042.1 | |
| 20260902043526 | 21 | 0.0 | 0.0 | 0.03 | 0.20 | 0.20 | 91 | 1042.1 | |
| 20260902043023 | 21 | 0.0 | 0.0 | 0.03 | 0.20 | 0.20 | 91 | 1042.2 | |
| 20260902042520 | 21 | 0.0 | 0.0 | 0.03 | 0.20 | 0.20 | 91 | 1041.7 | |
| 20260902042018 | 21 | 0.0 | 0.0 | 0.03 | 0.20 | 0.20 | 91 | 1041.4 | |
| 20260902041535 | 21 | 0.0 | 0.0 | 0.03 | 0.20 | 0.20 | 91 | 1041.2 | |
| 20260902041030 | 21 | 0.0 | 0.0 | 0.03 | 0.20 | 0.20 | 91 | 1041.5 | |
| 20260902040527 | 21 | 0.0 | 0.0 | 0.03 | 0.20 | 0.20 | 91 | 1042.0 | |
| 20260902040024 | 21 | 0.0 | 0.0 | 0.03 | 0.20 | 0.20 | 91 | 1041.7 | |
| 20260902035522 | 21 | 0.0 | 0.0 | 0.03 | 0.20 | 0.20 | 91 | 1041.8 | |
| 20260902035019 | 21 | 0.0 | 0.0 | 0.03 | 0.20 | 0.20 | 91 | 1041.7 | |
| 20260902034516 | 21 | 0.0 | 0.0 | 0.00 | 0.18 | 0.18 | 91 | 1041.4 | |
| 20260902034032 | 21 | 0.0 | 0.0 | 0.00 | 0.18 | 0.18 | 91 | 1041.2 | |
| 20260902033528 | 21 | 0.0 | 0.0 | 0.00 | 0.18 | 0.18 | 90 | 1041.4 | |
| 20260902033026 | 21 | 0.0 | 0.0 | 0.00 | 0.18 | 0.18 | 90 | 1041.5 | |
| 20260902032523 | 21 | 0.0 | 0.0 | 0.00 | 0.18 | 0.18 | 90 | 1041.5 | |
| 20260902032020 | 21 | 0.0 | 0.0 | 0.00 | 0.18 | 0.18 | 90 | 1041.5 | |
| 20260902031518 | 21 | 0.0 | 0.0 | 0.00 | 0.18 | 0.18 | 90 | 1041.6 | |
| 20260902031035 | 21 | 0.0 | 0.0 | 0.00 | 0.18 | 0.18 | 90 | 1041.5 | |
| 20260902030530 | 21 | 0.0 | 0.0 | 0.00 | 0.18 | 0.18 | 90 | 1041.6 | |
| 20260902030028 | 21 | 0.0 | 0.0 | 0.00 | 0.18 | 0.18 | 90 | 1041.8 | |
| 20260902025525 | 21 | 0.0 | 0.0 | 0.00 | 0.18 | 0.18 | 90 | 1041.8 | |
| 20260902025023 | 21 | 0.0 | 0.0 | 0.00 | 0.18 | 0.18 | 90 | 1041.7 | |
| 20260902024520 | 21 | 0.0 | 0.0 | 0.00 | 0.18 | 0.18 | 90 | 1041.7 | |
| 20260902024017 | 21 | 0.0 | 0.0 | 0.00 | 0.18 | 0.18 | 90 | 1041.8 | |
| 20260902023534 | 21 | 0.0 | 0.0 | 0.00 | 0.18 | 0.18 | 90 | 1041.8 | |
| 20260902023051 | 21 | 0.0 | 0.0 | 0.00 | 0.18 | 0.18 | 90 | 1041.8 | |
| 20260902022527 | 21 | 0.0 | 0.0 | 0.00 | 0.18 | 0.18 | 90 | 1041.9 | |
| 20260902022044 | 21 | 0.0 | 0.0 | 0.00 | 0.18 | 0.18 | 90 | 1041.9 | |
| 20260902021542 | 21 | 0.0 | 0.0 | 0.00 | 0.18 | 0.18 | 90 | 1041.9 | |
| 20260902021019 | 21 | 0.0 | 0.0 | 0.00 | 0.18 | 0.18 | 90 | 1041.9 | |
| 20260902020516 | 21 | 0.0 | 0.0 | 0.05 | 0.18 | 0.18 | 90 | 1041.7 | |
| 20260902020033 | 21 | 0.0 | 0.0 | 0.05 | 0.18 | 0.18 | 90 | 1041.8 | |
| 20260902015529 | 22 | 0.0 | 0.0 | 0.05 | 0.18 | 0.18 | 90 | 1041.7 | |
| 20260902015027 | 22 | 0.0 | 0.0 | 0.05 | 0.18 | 0.18 | 90 | 1041.7 | |
| 20260902014524 | 22 | 0.0 | 0.0 | 0.05 | 0.18 | 0.18 | 90 | 1041.8 | |
| 20260902014041 | 22 | 0.0 | 0.0 | 0.05 | 0.18 | 0.18 | 90 | 1041.8 | |
| 20260902013518 | 22 | 0.0 | 0.0 | 0.05 | 0.18 | 0.18 | 89 | 1041.7 | |
| 20260902013015 | 22 | 0.0 | 0.0 | 0.05 | 0.18 | 0.18 | 89 | 1041.6 | |
| 20260902012532 | 22 | 0.0 | 0.0 | 0.05 | 0.18 | 0.18 | 89 | 1041.6 | |
| 20260902012028 | 22 | 0.0 | 0.0 | 0.05 | 0.18 | 0.18 | 89 | 1041.5 | |
| 20260902011526 | 22 | 0.0 | 0.0 | 0.05 | 0.18 | 0.18 | 89 | 1041.4 | |
| 20260902011023 | 22 | 0.0 | 0.0 | 0.05 | 0.18 | 0.18 | 89 | 1041.4 | |
| 20260902010520 | 22 | 0.0 | 0.0 | 0.03 | 0.15 | 0.15 | 89 | 1041.4 | |
| 20260902010017 | 22 | 0.0 | 0.0 | 0.03 | 0.15 | 0.15 | 88 | 1041.4 | |
| 20260902005554 | 22 | 0.0 | 0.0 | 0.03 | 0.15 | 0.15 | 88 | 1041.4 | |
| 20260902005031 | 22 | 0.0 | 0.0 | 0.03 | 0.15 | 0.15 | 88 | 1041.2 | |
| 20260902004528 | 22 | 0.0 | 0.0 | 0.03 | 0.15 | 0.15 | 88 | 1041.2 | |
| 20260902004025 | 22 | 0.0 | 0.0 | 0.03 | 0.15 | 0.15 | 88 | 1041.3 | |
| 20260902003523 | 22 | 0.0 | 0.0 | 0.03 | 0.15 | 0.15 | 87 | 1041.2 | |
| 20260902003020 | 22 | 293 | 0.0 | 1.6 | 0.05 | 0.15 | 0.15 | 87 | 1041.1 |
| 20260902002517 | 22 | 0.0 | 0.0 | 0.03 | 0.13 | 0.13 | 87 | 1041.0 | |
| 20260902002055 | 22 | 0.0 | 0.0 | 0.03 | 0.13 | 0.13 | 87 | 1041.0 | |
| 20260902001551 | 22 | 273 | 0.0 | 1.6 | 0.03 | 0.13 | 0.13 | 86 | 1041.1 |
| 20260902001028 | 22 | 0.0 | 0.0 | 0.10 | 0.13 | 0.13 | 86 | 1041.0 | |
| 20260902000545 | 23 | 58 | 0.0 | 3.2 | 0.10 | 0.13 | 0.13 | 85 | 1040.9 |
| 20260902000022 | 23 | 0.0 | 0.0 | 0.10 | 0.13 | 0.13 | 85 | 1040.8 | |
| 20260901235539 | 23 | 0.0 | 0.0 | 0.10 | 0.13 | 0.13 | 84 | 1041.1 | |
| 20260901235016 | 23 | 0.0 | 0.0 | 0.10 | 0.10 | 0.10 | 85 | 1041.3 | |
| 20260901234531 | 23 | 0.0 | 0.0 | 0.10 | 0.10 | 0.10 | 84 | 1040.9 | |
| 20260901234028 | 23 | 0.0 | 0.0 | 0.10 | 0.10 | 0.10 | 84 | 1041.0 | |
| 20260901233545 | 24 | 323 | 0.0 | 1.6 | 0.10 | 0.10 | 0.10 | 83 | 1040.6 |
| 20260901233023 | 24 | 0.0 | 0.0 | 0.10 | 0.10 | 0.10 | 81 | 1040.5 | |
| 20260901232520 | 25 | 0.0 | 0.0 | 0.10 | 0.10 | 0.10 | 80 | 1040.5 | |
| 20260901232017 | 25 | 0.0 | 0.0 | 0.10 | 0.10 | 0.10 | 79 | 1040.8 | |
| 20260901231535 | 25 | 285 | 0.0 | 1.6 | 0.08 | 0.10 | 0.10 | 78 | 1041.1 |
| 20260901231030 | 26 | 0.0 | 0.0 | 0.00 | 0.00 | 0.00 | 77 | 1041.8 | |
| 20260901230527 | 26 | 0.0 | 0.0 | 0.00 | 0.00 | 0.00 | 76 | 1041.9 | |
| 20260901230024 | 26 | 0.0 | 0.0 | 0.00 | 0.00 | 0.00 | 75 | 1042.0 | |
| 20260901225521 | 26 | 0.0 | 0.0 | 0.00 | 0.00 | 0.00 | 75 | 1042.1 | |
| 20260901225019 | 26 | 0.0 | 0.0 | 0.00 | 0.00 | 0.00 | 76 | 1042.3 | |
| 20260901224516 | 26 | 0.0 | 0.0 | 0.00 | 0.00 | 0.00 | 76 | 1042.3 | |
| 20260901224133 | 26 | 0.0 | 0.0 | 0.00 | 0.00 | 0.00 | 75 | 1042.0 | |
| 20260901223529 | 27 | 0.0 | 0.0 | 0.00 | 0.00 | 0.00 | 74 | 1041.8 | |
| 20260901223027 | 27 | 0.0 | 0.0 | 0.00 | 0.00 | 0.00 | 74 | 1041.3 | |
| 20260901222523 | 27 | 0.0 | 0.0 | 0.00 | 0.00 | 0.00 | 73 | 1040.9 | |
| 20260901222041 | 27 | 0.0 | 0.0 | 0.00 | 0.00 | 0.00 | 71 | 1041.0 | |
| 20260901221518 | 28 | 0.0 | 0.0 | 0.00 | 0.00 | 0.00 | 69 | 1040.5 | |
| 20260901221035 | 28 | 0.0 | 0.0 | 0.00 | 0.00 | 0.00 | 69 | 1040.6 | |
| 20260901220532 | 28 | 0.0 | 0.0 | 0.00 | 0.00 | 0.00 | 70 | 1041.3 | |
| 20260901220028 | 28 | 0.0 | 0.0 | 0.00 | 0.00 | 0.00 | 69 | 1041.6 | |
| 20260901215526 | 28 | 0.0 | 0.0 | 0.00 | 0.00 | 0.00 | 69 | 1041.5 | |
| 20260901215022 | 29 | 0.0 | 0.0 | 0.00 | 0.00 | 0.00 | 69 | 1041.2 | |
| 20260901214520 | 29 | 0.0 | 0.0 | 0.00 | 0.00 | 0.00 | 66 | 1040.9 | |
| 20260901214017 | 30 | 0.0 | 0.0 | 0.00 | 0.00 | 0.00 | 65 | 1040.7 | |
| 20260901213533 | 30 | 0.0 | 0.0 | 0.00 | 0.00 | 0.00 | 63 | 1040.7 | |
| 20260901213030 | 30 | 0.0 | 0.0 | 0.00 | 0.00 | 0.00 | 63 | 1041.0 | |
| 20260901212526 | 31 | 0.0 | 0.0 | 0.00 | 0.00 | 0.00 | 63 | 1040.9 | |
| 20260901212024 | 31 | 0.0 | 0.0 | 0.00 | 0.00 | 0.00 | 60 | 1041.0 | |
| 20260901211521 | 31 | 0.0 | 0.0 | 0.00 | 0.00 | 0.00 | 58 | 1041.2 | |
| 20260901211019 | 31 | 0.0 | 0.0 | 0.00 | 0.00 | 0.00 | 59 | 1041.2 | |
| 20260901210516 | 31 | 0.0 | 0.0 | 0.00 | 0.00 | 0.00 | 59 | 1041.3 | |
| 20260901210033 | 31 | 0.0 | 0.0 | 0.00 | 0.00 | 0.00 | 60 | 1041.3 | |
| 20260901205550 | 31 | 0.0 | 0.0 | 0.00 | 0.00 | 0.00 | 60 | 1041.6 | |
| 20260901205026 | 31 | 0.0 | 0.0 | 0.00 | 0.00 | 0.00 | 61 | 1041.5 | |
| 20260901204523 | 31 | 0.0 | 0.0 | 0.00 | 0.00 | 0.00 | 64 | 1041.7 | |
| 20260901204021 | 30 | 0.0 | 0.0 | 0.00 | 0.00 | 0.00 | 65 | 1041.7 | |
| 20260901203518 | 30 | 0.0 | 0.0 | 0.00 | 0.00 | 0.00 | 67 | 1041.5 | |
| 20260901203035 | 30 | 0.0 | 0.0 | 0.00 | 0.00 | 0.00 | 68 | 1041.4 | |
| 20260901202531 | 29 | 0.0 | 0.0 | 0.00 | 0.00 | 0.00 | 70 | 1041.4 | |
| 20260901202029 | 29 | 0.0 | 0.0 | 0.00 | 0.00 | 0.00 | 69 | 1041.6 | |
| 20260901201525 | 29 | 0.0 | 0.0 | 0.00 | 0.00 | 0.00 | 68 | 1041.5 | |
| 20260901201103 | 29 | 0.0 | 0.0 | 0.00 | 0.00 | 0.00 | 67 | 1041.5 | |
| 20260901200520 | 29 | 0.0 | 0.0 | 0.00 | 0.00 | 0.00 | 67 | 1041.6 | |
| 20260901200017 | 29 | 0.0 | 0.0 | 0.00 | 0.00 | 0.00 | 67 | 1041.9 | |
| 20260901195534 | 30 | 0.0 | 0.0 | 0.00 | 0.00 | 0.00 | 67 | 1041.9 | |
| 20260901195049 | 30 | 0.0 | 0.0 | 0.00 | 0.00 | 0.00 | 67 | 1042.1 | |
| 20260901194526 | 30 | 0.0 | 0.0 | 0.00 | 0.00 | 0.00 | 67 | 1042.1 | |
| 20260901194024 | 30 | 0.0 | 0.0 | 0.00 | 0.00 | 0.00 | 67 | 1042.2 | |
| 20260901193520 | 31 | 13 | 0.0 | 1.6 | 0.00 | 0.00 | 0.00 | 67 | 1042.2 |
| 20260901193017 | 31 | 0.0 | 0.0 | 0.00 | 0.00 | 0.00 | 66 | 1042.3 | |
| 20260901192535 | 31 | 0.0 | 0.0 | 0.00 | 0.00 | 0.00 | 65 | 1042.3 | |
| 20260901192030 | 31 | 0.0 | 0.0 | 0.00 | 0.00 | 0.00 | 65 | 1042.2 | |
| 20260901191528 | 31 | 0.0 | 0.0 | 0.00 | 0.00 | 0.00 | 64 | 1042.3 | |
| 20260901191045 | 31 | 0.0 | 0.0 | 0.00 | 0.00 | 0.00 | 65 | 1042.2 | |
| 20260901190543 | 31 | 0.0 | 0.0 | 0.00 | 0.00 | 0.00 | 65 | 1042.2 | |
| 20260901190020 | 31 | 0.0 | 0.0 | 0.00 | 0.00 | 0.00 | 65 | 1042.3 | |
| 20260901185517 | 31 | 0.0 | 0.0 | 0.00 | 0.00 | 0.00 | 65 | 1042.3 | |
| 20260901185034 | 31 | 0.0 | 0.0 | 0.00 | 0.00 | 0.00 | 65 | 1042.3 | |
| 20260901184530 | 31 | 0.0 | 0.0 | 0.00 | 0.00 | 0.00 | 67 | 1042.3 | |
| 20260901184027 | 30 | 0.0 | 0.0 | 0.00 | 0.00 | 0.00 | 65 | 1042.4 | |
| 20260901183524 | 31 | 232 | 0.0 | 1.6 | 0.00 | 0.00 | 0.00 | 65 | 1042.3 |
| 20260901183021 | 31 | 0.0 | 0.0 | 0.00 | 0.00 | 0.00 | 64 | 1042.2 | |
| 20260901182517 | 31 | 0.0 | 0.0 | 0.00 | 0.00 | 0.00 | 64 | 1042.2 | |
| 20260901182035 | 31 | 0.0 | 0.0 | 0.00 | 0.00 | 0.00 | 63 | 1042.4 | |
| 20260901181531 | 31 | 0.0 | 0.0 | 0.00 | 0.00 | 0.00 | 64 | 1042.2 | |
| 20260901181028 | 31 | 0.0 | 0.0 | 0.00 | 0.00 | 0.00 | 64 | 1042.3 | |
| 20260901180526 | 31 | 199 | 0.0 | 3.2 | 0.00 | 0.00 | 0.00 | 66 | 1042.2 |
| 20260901180022 | 31 | 129 | 0.0 | 3.2 | 0.00 | 0.00 | 0.00 | 67 | 1042.3 |
| 20260901175520 | 31 | 114 | 0.0 | 3.2 | 0.00 | 0.00 | 0.00 | 66 | 1042.3 |
| 20260901175018 | 31 | 0.0 | 0.0 | 0.00 | 0.00 | 0.00 | 67 | 1042.4 | |
| 20260901174535 | 31 | 274 | 0.0 | 1.6 | 0.00 | 0.00 | 0.00 | 67 | 1042.4 |
| 20260901174030 | 31 | 187 | 0.0 | 1.6 | 0.00 | 0.00 | 0.00 | 67 | 1042.5 |
| 20260901173547 | 30 | 265 | 0.0 | 3.2 | 0.00 | 0.00 | 0.00 | 67 | 1042.5 |
| 20260901173024 | 30 | 0.0 | 0.0 | 0.00 | 0.00 | 0.00 | 69 | 1042.4 | |
| 20260901172522 | 30 | 135 | 0.0 | 1.6 | 0.00 | 0.00 | 0.00 | 69 | 1042.5 |
| 20260901172019 | 30 | 135 | 0.0 | 1.6 | 0.00 | 0.00 | 0.00 | 70 | 1042.6 |
| 20260901171517 | 30 | 135 | 0.0 | 3.2 | 0.00 | 0.00 | 0.00 | 73 | 1042.6 |
| 20260901171034 | 30 | 135 | 0.0 | 1.6 | 0.00 | 0.00 | 0.00 | 74 | 1042.7 |
| 20260901170529 | 30 | 135 | 0.0 | 1.6 | 0.00 | 0.00 | 0.00 | 77 | 1042.8 |
| 20260901170026 | 29 | 145 | 0.0 | 3.2 | 0.00 | 0.00 | 0.00 | 78 | 1042.8 |
| 20260901165543 | 29 | 170 | 0.0 | 1.6 | 0.00 | 0.00 | 0.00 | 79 | 1042.7 |
| 20260901165021 | 29 | 170 | 0.0 | 1.6 | 0.00 | 0.00 | 0.00 | 79 | 1042.7 |
| 20260901164538 | 28 | 0.0 | 0.0 | 0.00 | 0.00 | 0.00 | 79 | 1042.7 | |
| 20260901164035 | 28 | 170 | 0.0 | 3.2 | 0.00 | 0.00 | 0.00 | 80 | 1042.8 |